EW4438 Weather Reports


time (UTC)temp
F
wind
direction
speed
knots
gust
knots
rain 1hr
in
rain 24hr
in
rain mn
in
humidity
%
barometer
mb
20260505223035 63 337 4.3 5.2 0.00 0.00 0.00 66 1022.8
20260505222133 64 331 1.7 4.3 0.00 0.00 0.00 65 1022.8
20260505221133 64 337 2.6 3.5 0.00 0.00 0.00 66 1023.2
20260505220133 65 309 0.9 3.5 0.00 0.00 0.00 67 1022.8
20260505215133 64 343 2.6 4.3 0.00 0.00 0.00 66 1023.2
20260505214233 64 360 2.6 3.5 0.00 0.00 0.00 66 1023.2
20260505213232 64 337 2.6 3.5 0.00 0.00 0.00 65 1023.2
20260505212235 65 308 1.7 3.5 0.00 0.00 0.00 64 1023.2
20260505211233 67 232 0.9 5.2 0.00 0.00 0.00 64 1023.2
20260505210232 64 315 1.7 4.3 0.00 0.00 0.00 65 1023.5
20260505205133 65 269 2.6 3.5 0.00 0.00 0.00 65 1023.5
20260505203133 64 292 0.0 0.0 0.00 0.00 0.00 68 1023.5
20260505200233 63 337 2.6 3.5 0.00 0.00 0.00 67 1023.5
20260505195234 62 360 1.7 3.5 0.00 0.00 0.00 69 1023.8
20260505194234 63 337 0.9 3.5 0.00 0.00 0.00 72 1023.8
20260505193232 61 360 0.9 2.6 0.00 0.00 0.00 73 1023.8
20260505192233 61 22 0.9 2.6 0.00 0.00 0.00 73 1023.8
20260505191248 61 78 2.6 3.5 0.00 0.00 0.00 71 1023.8
20260505190334 63 180 0.0 0.0 0.00 0.00 0.00 70 1023.8
20260505185333 63 228 0.0 1.7 0.00 0.00 0.00 70 1024.2
20260505184333 62 67 0.0 0.9 0.00 0.00 0.00 73 1024.2
20260505184234 61 67 0.0 0.0 0.00 0.00 0.00 72 1024.2
20260505181331 62 225 0.0 0.0 0.00 0.00 0.00 73 1024.2
20260505180333 61 206 0.9 4.3 0.00 0.00 0.00 74 1023.8
20260505174434 61 201 0.0 2.6 0.00 0.00 0.00 73 1023.8
20260505173532 61 202 0.0 0.9 0.00 0.00 0.00 72 1023.8
20260505172531 60 157 0.0 0.0 0.00 0.00 0.00 71 1023.8
20260505171534 59 315 0.9 3.5 0.00 0.00 0.00 73 1023.5
20260505170537 60 266 2.6 4.3 0.00 0.00 0.00 71 1023.5
20260505165631 61 251 1.7 3.5 0.00 0.00 0.00 73 1023.6
20260505164634 61 247 2.6 4.3 0.00 0.00 0.00 75 1023.8
20260505163633 60 270 0.0 0.9 0.00 0.00 0.00 74 1023.5
20260505163532 60 270 1.7 4.3 0.00 0.00 0.00 74 1023.5
20260505162533 60 182 1.7 4.3 0.00 0.00 0.00 76 1023.5
20260505161633 60 292 0.0 2.6 0.00 0.00 0.00 79 1023.5
20260505152735 57 112 0.0 0.9 0.00 0.00 0.00 84 1023.5
20260505151832 57 202 0.0 0.0 0.00 0.00 0.00 86 1023.5
20260505140134 56 121 0.0 2.6 0.00 0.00 0.00 87 1023.2
20260505130231 56 158 0.0 4.3 0.00 0.00 0.00 88 1022.8
20260505124331 56 270 0.0 0.0 0.00 0.00 0.00 88 1022.8
20260505123333 56 225 0.0 0.0 0.00 0.00 0.00 87 1022.8
20260505122332 56 225 0.0 0.0 0.00 0.00 0.00 87 1022.8
20260505121335 56 212 0.0 0.0 0.00 0.00 0.00 87 1022.5
20260505120334 56 247 0.0 0.0 0.00 0.00 0.00 86 1022.5
20260505115334 56 247 0.0 0.0 0.00 0.00 0.00 86 1022.2
20260505114432 56 225 0.0 0.0 0.00 0.00 0.00 86 1022.5
20260505113433 56 202 0.0 0.0 0.00 0.00 0.00 86 1022.2
20260505112448 56 202 0.0 0.0 0.00 0.00 0.00 86 1022.5
20260505111533 56 202 0.0 0.0 0.00 0.00 0.00 86 1022.2
20260505110532 56 202 0.0 0.0 0.00 0.00 0.00 86 1022.2
20260505101533 57 270 0.0 0.0 0.00 0.00 0.00 88 1021.8
20260505100534 57 270 0.0 0.0 0.00 0.00 0.00 89 1022.2
20260505095534 57 270 0.0 0.0 0.00 0.00 0.00 91 1022.2
20260505094632 56 315 0.0 0.0 0.00 0.00 0.00 91 1022.2
20260505093632 56 315 0.0 0.0 0.00 0.00 0.00 89 1022.2
20260505091633 56 315 0.0 0.0 0.00 0.00 0.00 89 1021.5
20260505090635 57 315 0.0 0.0 0.00 0.00 0.00 88 1021.5
20260505085633 57 315 0.0 0.0 0.00 0.00 0.00 88 1021.5
20260505084648 57 315 0.0 0.0 0.00 0.00 0.00 87 1021.5
20260505083732 57 315 0.0 0.0 0.00 0.00 0.00 87 1021.5
20260505082731 57 315 0.0 0.0 0.00 0.00 0.00 86 1021.5
20260505080732 58 315 0.0 0.0 0.00 0.00 0.00 84 1021.1
20260505074732 58 337 0.9 2.6 0.00 0.00 0.00 83 1021.1
20260505073732 59 337 1.7 3.5 0.00 0.00 0.00 83 1020.8
20260505065739 61 252 1.7 3.5 0.00 0.00 0.00 80 1020.4
20260505064838 61 247 0.9 3.5 0.00 0.00 0.00 80 1020.4
20260505063839 61 225 0.0 1.7 0.00 0.00 0.00 82 1019.8
20260505062840 61 211 0.0 2.6 0.00 0.00 0.00 81 1019.8
20260505061840 61 292 0.0 0.0 0.00 0.00 0.00 79 1019.8
20260505060938 62 270 0.9 2.6 0.00 0.00 0.00 79 1019.4
20260505055837 62 250 0.0 0.0 0.00 0.00 0.00 78 1019.4
20260505054840 63 310 1.7 4.3 0.00 0.00 0.00 77 1019.4
20260505052839 63 315 0.0 0.0 0.00 0.00 0.00 74 1019.1
20260505051839 64 239 0.0 0.9 0.00 0.00 0.00 73 1019.1
20260505041037 69 202 1.7 4.3 0.00 0.00 0.00 70 1017.7
20260505040937 69 249 2.6 5.2 0.00 0.00 0.00 70 1017.7
20260505035957 69 231 1.7 4.3 0.00 0.00 0.00 70 1017.7
20260505034941 69 233 1.7 7.0 0.00 0.00 0.00 70 1017.4
20260505034038 69 230 2.6 7.0 0.00 0.00 0.00 70 1017.0
20260505033039 70 212 1.7 4.3 0.00 0.00 0.00 70 1017.0
20260505032054 70 232 0.9 4.3 0.00 0.00 0.00 70 1016.7
20260505030142 71 207 1.7 7.0 0.00 0.00 0.00 68 1016.7
20260505025140 71 222 0.9 4.3 0.00 0.00 0.00 66 1016.3
20260505024137 72 180 0.9 2.6 0.00 0.00 0.00 63 1016.3
20260505023139 73 270 0.0 0.9 0.00 0.00 0.00 61 1016.3
20260505022239 73 215 1.7 3.5 0.00 0.00 0.00 58 1016.3
20260505020353 78 225 2.6 6.1 0.00 0.00 0.00 54 1016.3
20260505015439 78 209 2.6 6.1 0.00 0.00 0.00 54 1016.3
20260505013539 78 223 1.7 6.1 0.00 0.00 0.00 55 1016.3
20260505011539 77 255 3.5 6.1 0.00 0.00 0.00 52 1016.3
20260505010539 79 242 0.9 3.5 0.00 0.00 0.00 53 1016.3
20260505005540 78 203 2.6 5.2 0.00 0.00 0.00 53 1016.3
20260505004554 77 244 3.5 6.1 0.00 0.00 0.00 52 1016.7
20260505003638 79 260 4.3 8.7 0.00 0.00 0.00 52 1016.7
20260505001654 76 260 4.3 7.0 0.00 0.00 0.00 50 1016.7
20260505001537 76 272 4.3 6.1 0.00 0.00 0.00 50 1016.7
20260505000540 78 253 2.6 6.1 0.00 0.00 0.00 50 1016.3
20260504235538 77 247 3.5 6.1 0.00 0.00 0.00 51 1016.7
20260504234538 78 138 0.0 3.5 0.00 0.00 0.00 53 1016.7
20260504233540 76 277 3.5 7.8 0.00 0.00 0.00 51 1017.0
20260504232539 76 181 1.7 4.3 0.00 0.00 0.00 50 1016.7
20260504232438 77 226 2.6 6.1 0.00 0.00 0.00 50 1016.7
20260504231438 77 257 3.5 7.0 0.00 0.00 0.00 51 1017.0
20260504230438 76 271 5.2 7.8 0.00 0.00 0.00 51 1017.0
20260504225537 77 236 1.7 6.1 0.00 0.00 0.00 53 1017.0
20260504223638 78 257 2.6 6.1 0.00 0.00 0.00 51 1017.1